Theta_e
345 344 343 335 330 338 344 347 349 349 351 347 349 349 349 347 346 340 338 341 340 344 346 342 335 338 346 345 347 346 347 346 344 340 341 339 341 341 340 344 347 349 350
346 345 345 343 331 330 339 346 347 349 351 350 349 348 350 349 347 345 333 338 343 344 344 345 341 333 340 344 344 349 349 349 349 348 347 343 344 347 343 348 350 351 352
347 347 346 345 339 328 329 340 345 347 348 347 347 347 349 349 348 345 335 334 336 343 348 350 348 345 347 341 342 347 351 351 351 350 349 348 348 344 347 349 349 351 339
348 348 348 347 345 338 328 328 341 345 346 346 346 345 346 349 349 348 338 334 332 333 339 346 349 348 345 344 345 342 344 346 345 348 348 347 344 343 346 345 343 336 334
349 349 348 348 347 346 342 331 327 334 345 343 343 347 350 351 349 348 347 340 336 332 331 337 339 341 343 345 344 341 342 344 344 346 344 344 345 336 337 338 341 341 334
350 350 350 349 348 348 348 347 342 330 329 338 343 339 348 351 351 349 345 341 337 336 332 330 333 337 341 340 343 342 340 342 343 345 345 343 335 339 339 342 343 338 341
352 352 351 351 350 350 350 350 349 348 340 330 329 330 332 341 346 347 344 341 339 338 337 335 331 332 332 335 337 339 344 347 349 347 347 345 346 342 345 345 344 344 344
354 354 355 354 353 353 353 353 352 351 350 345 336 333 331 331 332 334 335 338 339 338 338 338 337 333 332 333 334 336 336 337 339 346 349 348 349 343 346 345 342 340 344
353 354 355 357 356 355 355 354 354 354 352 351 346 342 338 337 335 338 337 336 339 336 337 339 340 339 336 337 338 335 333 331 331 335 338 338 337 340 343 341 341 347 350
352 352 355 356 356 355 355 354 354 355 353 350 350 349 345 341 339 341 340 337 338 336 336 338 339 340 338 338 342 340 337 329 331 332 334 336 339 341 344 349 353 355 355
340 351 352 354 355 356 355 354 354 355 355 354 350 348 349 347 345 343 342 343 344 338 335 336 337 338 339 339 340 341 338 335 336 338 344 346 348 349 351 354 357 357 356
344 342 347 353 357 356 356 355 355 356 356 355 354 352 350 348 347 348 348 347 345 343 336 335 337 338 340 342 344 344 342 341 344 346 347 346 347 348 349 354 357 355 357
348 353 351 355 356 357 357 356 356 356 356 356 355 354 353 352 350 344 342 341 340 342 339 337 339 341 343 344 344 345 344 345 348 348 347 346 346 347 351 355 354 356 358
340 347 353 356 359 359 358 357 356 357 356 356 356 355 355 355 353 350 345 341 341 343 344 344 343 346 348 349 349 348 348 348 349 348 348 346 344 345 351 355 353 357 359
340 346 349 354 355 360 360 359 358 358 357 357 356 356 356 356 355 353 350 343 340 339 340 346 351 348 349 351 350 350 349 348 345 343 343 340 341 344 352 353 357 358 357
342 349 359 359 357 360 361 360 360 360 359 359 359 359 358 357 356 356 356 356 353 352 351 354 354 353 352 349 352 351 346 342 340 340 339 339 341 352 356 356 357 356 356
339 345 353 361 363 362 361 361 360 360 361 361 361 361 360 360 358 358 358 358 359 356 357 355 357 357 356 353 354 357 360 357 354 348 347 348 354 360 356 357 357 359 359
335 341 345 354 362 363 363 362 360 359 359 361 362 361 362 362 362 361 361 361 361 360 360 359 357 354 352 352 355 359 361 358 356 357 359 360 361 358 356 357 360 360 352
331 337 342 348 356 359 360 357 355 357 356 357 358 360 359 360 361 359 359 360 358 358 356 356 355 356 356 355 356 357 359 360 360 358 359 359 358 358 356 356 355 356 353
327 330 336 342 349 354 356 356 356 356 356 352 357 358 359 359 360 358 360 358 357 356 355 353 353 354 355 353 353 354 355 356 356 359 354 351 351 351 352 353 353 353 352
327 330 333 338 345 350 352 351 354 356 359 359 355 356 359 357 358 357 358 358 357 356 354 353 353 354 353 353 353 350 349 348 348 351 346 342 339 346 352 349 352 349 349
327 330 332 335 339 343 346 350 353 357 358 357 356 357 357 354 357 357 357 355 352 351 351 351 351 352 351 348 347 345 341 337 337 336 337 338 338 336 349 348 350 348 346
324 327 329 333 337 339 341 343 347 347 351 351 348 348 348 347 350 350 349 349 349 347 345 349 349 347 344 341 339 339 343 344 344 342 344 347 348 346 343 346 348 346 343
320 324 326 330 331 331 332 336 335 340 338 345 343 344 342 340 339 341 343 342 343 342 341 341 340 340 339 340 340 336 339 342 344 345 345 347 346 345 345 343 346 346 344
317 320 320 324 326 329 326 326 325 328 328 333 330 330 326 331 330 328 331 338 336 337 337 338 338 335 336 336 335 335 334 338 337 335 340 341 343 342 341 341 340 339 339
313 314 316 317 318 319 320 321 319 317 319 324 325 329 327 326 323 328 326 322 327 325 327 329 330 330 332 326 325 325 328 328 327 326 327 330 331 331 331 332 333 333 333
Wind_Speed
45 42 40 43 42 42 40 34 28 26 25 22 18 20 21 18 14 14 14 13 14 15 14 14 18 20 18 14 9 11 9 11 13 14 13 13 14 17 18 17 17 20 24
47 44 41 43 44 42 44 41 34 32 28 27 25 21 25 23 17 15 17 18 16 16 14 12 14 19 23 20 16 14 14 14 16 17 15 15 17 16 18 15 15 18 17
49 45 42 42 46 47 44 45 42 37 34 34 31 29 23 24 21 17 16 17 18 19 17 17 14 17 18 20 22 19 18 16 18 21 23 23 22 20 15 16 17 14 27
53 47 44 43 45 47 47 45 46 43 39 35 34 32 30 26 25 19 16 16 18 20 20 18 17 16 18 18 19 19 21 22 21 23 25 26 26 20 20 21 25 28 28
53 50 48 44 44 43 45 48 47 46 45 41 38 35 32 30 30 27 24 21 20 21 22 23 22 21 21 20 20 21 21 23 23 23 25 24 24 22 23 27 32 29 29
49 50 46 46 47 47 44 43 45 50 49 47 44 40 39 36 34 31 28 26 24 23 23 24 25 25 23 22 22 21 20 22 24 24 25 25 25 25 24 25 27 31 36
40 44 47 45 49 49 45 43 45 44 47 52 50 47 45 44 43 40 36 33 30 29 26 25 25 24 24 24 22 21 22 22 23 24 27 27 28 26 26 28 30 33 31
36 39 43 46 48 47 45 41 42 43 42 46 50 51 48 47 44 42 40 36 34 31 29 26 25 24 24 23 23 25 26 27 26 26 29 30 30 28 29 31 34 33 32
42 37 37 44 50 47 44 39 38 39 40 40 44 46 48 46 44 40 37 38 36 34 31 29 27 26 24 22 24 26 26 27 27 28 30 31 31 32 32 34 30 28 30
31 31 35 40 46 46 45 40 38 38 37 36 40 43 44 45 43 39 36 36 37 36 34 33 31 30 28 26 27 28 30 29 28 29 30 31 31 30 25 23 22 25 24
32 35 32 32 48 55 51 44 42 41 39 37 37 37 39 42 42 41 39 37 37 36 37 36 34 31 30 30 29 31 33 29 30 28 24 22 22 22 19 18 20 23 24
26 29 33 37 44 49 51 49 46 44 43 41 39 38 38 37 37 37 37 37 36 37 37 34 33 31 29 30 31 32 31 29 28 26 28 29 26 23 19 21 22 20 16
18 21 31 35 42 43 47 51 47 46 47 45 43 41 40 38 36 35 34 34 33 36 36 33 32 32 33 33 32 32 29 30 32 33 33 30 26 23 22 24 18 16 15
22 18 24 26 35 40 44 47 48 47 50 49 46 44 41 39 37 36 34 33 32 32 34 34 33 33 34 34 34 33 32 32 32 32 33 33 30 26 25 22 18 15 17
19 20 21 27 30 36 44 46 47 47 47 46 46 42 39 40 37 34 34 32 30 29 29 32 36 35 36 37 37 38 38 38 40 40 39 35 30 28 26 19 18 18 19
19 16 18 22 30 33 41 46 45 45 45 42 41 38 34 33 31 30 28 29 27 25 28 31 33 33 35 33 32 33 34 37 39 38 38 36 33 26 22 17 19 19 19
20 18 17 18 24 31 39 44 43 42 43 40 40 37 35 31 28 27 26 24 22 22 29 31 32 31 31 29 29 29 28 27 29 31 29 28 25 22 21 19 19 19 20
18 19 20 16 22 26 32 39 40 38 38 38 37 35 35 33 30 27 24 26 31 29 31 33 31 30 30 31 31 29 26 21 20 20 20 20 20 20 19 19 21 21 18
18 19 20 18 18 22 27 29 29 32 34 35 36 37 36 33 31 24 28 29 25 25 28 30 31 36 36 33 28 26 23 23 23 22 21 21 18 18 22 21 20 17 17
16 15 17 17 18 19 23 25 29 29 29 31 34 35 38 36 32 34 31 28 24 21 18 18 18 20 23 25 27 27 27 25 21 19 18 15 17 27 25 19 18 18 19
12 12 14 19 13 15 20 27 26 30 32 30 31 31 30 34 33 33 34 32 29 27 26 26 26 24 25 25 21 11 10 9 11 19 13 7 9 36 16 17 14 15 16
8 7 11 10 14 17 21 21 22 24 28 27 26 30 35 34 36 36 35 32 27 24 20 20 21 20 18 15 19 24 28 31 26 26 34 32 35 40 24 16 15 15 15
9 9 6 7 8 14 16 22 24 26 26 25 25 24 22 25 28 29 25 24 21 19 16 16 16 15 16 20 22 21 13 12 13 18 22 19 21 20 14 18 22 19 19
10 9 9 8 7 11 18 17 23 26 28 30 29 28 27 26 22 18 17 13 12 13 14 13 11 13 14 11 12 11 8 8 11 13 14 13 12 10 13 16 21 20 21
7 8 8 10 11 11 14 20 21 22 23 27 23 19 19 23 23 19 20 18 14 10 10 9 9 9 9 8 6 8 6 6 7 8 9 9 13 14 17 21 23 26 27
8 8 12 14 15 14 18 17 21 23 21 25 23 19 18 19 17 11 14 16 16 14 11 8 6 4 3 3 3 4 9 11 11 10 12 15 17 18 19 22 24 25 27
Wind_Direction
225 228 230 227 219 215 213 213 215 210 215 215 217 231 229 225 230 230 223 218 212 208 216 222 227 224 222 228 245 249 267 263 269 268 277 275 284 290 292 298 301 307 311
226 227 230 230 226 218 216 214 214 216 215 222 227 238 228 226 232 236 228 223 217 213 209 220 224 220 229 232 242 245 251 259 270 278 281 283 287 298 306 297 301 306 316
225 227 230 230 227 224 220 219 218 219 221 226 231 231 222 224 230 235 233 230 231 231 230 233 233 227 230 237 240 250 251 256 263 274 283 289 294 303 295 294 306 299 313
231 228 230 232 230 228 227 223 223 222 222 225 230 234 232 230 234 235 239 243 239 239 238 238 236 236 242 245 246 256 257 258 264 270 276 283 291 298 296 303 307 313 317
232 232 233 234 234 231 230 230 228 227 228 229 230 233 234 233 238 241 246 250 249 245 244 242 244 244 246 251 257 257 256 255 260 268 275 283 286 293 301 311 311 313 317
233 235 239 237 236 235 233 232 233 232 231 230 232 233 235 237 241 245 250 254 254 252 249 249 249 249 250 250 249 254 254 257 263 269 276 280 286 296 305 307 307 312 318
232 239 239 241 240 236 235 234 234 234 234 235 235 235 235 237 242 247 251 254 256 255 254 253 251 250 250 251 250 251 252 255 260 270 276 279 288 297 301 301 305 305 305
226 232 239 241 241 238 234 234 236 236 233 233 236 238 238 239 241 245 248 251 255 255 255 255 253 251 251 256 259 260 260 261 261 263 271 278 284 291 292 299 302 299 303
228 226 236 240 242 239 235 235 235 238 238 234 234 238 238 241 243 244 244 246 251 255 253 252 252 255 254 255 260 263 264 264 263 266 271 278 282 287 291 293 292 298 302
231 226 228 238 240 239 241 239 238 238 242 239 237 238 241 243 244 245 245 246 249 251 253 253 253 255 259 261 262 266 270 270 277 280 279 278 280 281 281 279 291 293 296
251 223 223 241 243 240 247 243 241 240 240 241 240 240 242 244 245 247 247 247 249 250 250 253 255 257 259 263 264 266 270 281 284 280 275 273 274 276 281 290 295 290 283
259 239 248 250 242 242 243 245 242 241 241 241 242 243 244 245 247 246 247 247 248 249 250 252 258 262 264 265 267 268 272 275 270 266 270 271 271 277 292 292 287 271 265
301 252 246 250 238 241 241 242 241 241 241 241 241 243 247 248 249 249 248 247 245 249 251 254 259 263 268 268 265 265 264 257 259 264 268 273 279 290 286 281 275 258 263
298 287 252 252 237 237 240 242 242 239 239 239 240 243 246 248 250 251 249 247 245 246 250 255 259 264 267 268 268 265 261 259 261 264 268 276 280 278 278 281 262 255 262
295 291 277 247 244 236 239 239 242 245 243 243 243 246 248 249 251 252 252 250 248 250 254 255 257 259 261 263 264 263 263 262 262 265 269 272 274 276 272 262 254 258 262
300 291 278 245 233 238 236 237 240 246 247 247 249 252 257 259 262 262 260 262 264 264 260 258 260 261 262 265 269 271 269 266 265 266 266 265 267 264 262 251 253 256 260
299 290 284 259 233 231 236 236 237 238 239 242 245 249 254 259 261 262 262 266 264 261 259 259 259 262 263 264 268 272 276 276 266 262 262 257 253 259 259 248 251 249 260
289 284 282 261 236 232 234 240 242 244 242 240 241 248 249 249 252 253 248 253 252 255 258 260 260 259 258 265 268 269 270 272 260 252 250 254 258 263 254 250 257 257 256
281 279 276 265 241 234 233 237 244 248 249 249 246 244 247 243 241 240 242 244 253 250 253 255 259 259 261 264 264 265 266 268 269 262 265 265 262 260 261 255 258 264 270
270 277 276 262 252 245 245 247 250 253 254 251 249 246 238 233 232 234 236 230 223 226 238 246 253 254 252 255 257 260 259 257 253 254 249 248 281 286 271 263 265 277 277
272 275 265 252 243 241 248 253 251 245 247 247 245 241 237 233 228 222 218 221 231 241 243 238 236 235 236 239 241 242 252 263 307 279 226 184 330 305 265 270 269 276 271
263 253 236 239 229 236 238 223 230 226 227 219 221 229 227 208 209 209 213 223 227 228 230 227 225 227 213 236 251 253 265 280 280 271 264 241 243 269 254 253 261 270 288
249 228 182 191 170 155 188 190 211 200 192 188 180 171 183 191 193 194 185 181 181 185 190 190 193 202 227 239 253 264 259 254 238 240 239 227 219 228 224 261 263 268 271
238 237 200 174 137 142 143 152 148 159 158 167 160 158 160 155 154 161 164 163 165 173 179 189 211 233 237 233 235 245 237 215 220 229 230 232 241 243 253 249 260 268 271
196 196 177 156 152 145 131 133 125 138 142 144 142 140 137 148 142 139 137 146 155 166 177 205 194 186 194 207 215 232 238 233 260 275 259 259 263 262 264 265 271 274 270
117 140 125 127 123 129 119 119 115 119 122 120 124 130 132 128 138 111 105 120 124 128 129 134 166 191 154 225 262 299 290 292 297 299 295 282 277 274 274 272 274 275 278